timestamp,wind_dir_avg,wind_spd_avg,wind_spd_max_dir,wind_spd_gust,battery_voltage,lat,long
2021-12-26 00:04:01+00:00,314.0,9.2,300.0,13.21,12.57,47.59359,-54.27349
2021-12-26 00:14:01+00:00,312.0,8.79,301.0,11.18,12.49,47.59359,-54.27349
2021-12-26 00:24:01+00:00,302.0,10.52,294.0,14.34,12.49,47.59359,-54.27349
2021-12-26 00:34:01+00:00,316.0,8.9,301.0,12.63,12.49,47.59359,-54.27349
2021-12-26 00:44:01+00:00,303.0,12.09,299.0,15.55,12.49,47.59359,-54.27349
2021-12-26 00:54:01+00:00,300.0,10.4,296.0,14.55,12.49,47.59359,-54.27349
2021-12-26 01:04:01+00:00,311.0,9.34,298.0,14.43,12.49,47.59359,-54.27349
2021-12-26 01:14:01+00:00,312.0,10.03,290.0,14.39,12.49,47.59359,-54.27349
2021-12-26 01:24:01+00:00,315.0,10.52,303.0,15.7,12.49,47.59359,-54.27349
2021-12-26 01:34:01+00:00,303.0,13.21,305.0,16.43,12.49,47.59359,-54.27349
2021-12-26 01:44:01+00:00,312.0,11.82,303.0,16.68,12.49,47.59359,-54.27349
2021-12-26 01:54:01+00:00,322.0,12.94,315.0,17.0,12.49,47.59359,-54.27349
2021-12-26 02:04:01+00:00,324.0,11.97,314.0,17.8,12.49,47.59359,-54.27349
2021-12-26 02:14:00+00:00,319.0,12.89,311.0,17.41,12.41,47.59359,-54.27349
2021-12-26 02:24:00+00:00,321.0,12.26,310.0,18.15,12.41,47.59359,-54.27349
2021-12-26 02:34:00+00:00,327.0,11.47,318.0,14.43,12.41,47.59359,-54.27349
2021-12-26 02:44:00+00:00,327.0,10.49,322.0,12.85,12.41,47.59359,-54.27349
2021-12-26 02:54:00+00:00,330.0,9.2,324.0,11.95,12.41,47.59359,-54.27349
2021-12-26 03:04:00+00:00,325.0,10.77,314.0,12.53,12.41,47.59359,-54.27349
2021-12-26 03:14:00+00:00,326.0,9.44,324.0,11.33,12.41,47.59359,-54.27349
2021-12-26 03:24:00+00:00,335.0,10.07,334.0,12.38,12.41,47.59359,-54.27349
2021-12-26 03:34:00+00:00,331.0,10.0,338.0,12.19,12.41,47.59359,-54.27349
2021-12-26 03:44:00+00:00,332.0,11.68,310.0,15.4,12.41,47.59359,-54.27349
2021-12-26 03:54:00+00:00,337.0,12.28,326.0,14.99,12.41,47.59359,-54.27349
2021-12-26 04:04:00+00:00,335.0,11.75,322.0,14.03,12.41,47.59359,-54.27349
2021-12-26 04:14:00+00:00,332.0,11.29,336.0,14.17,12.41,47.59359,-54.27349
2021-12-26 04:24:00+00:00,331.0,10.96,325.0,12.73,12.41,47.59359,-54.27349
2021-12-26 04:34:00+00:00,333.0,13.05,328.0,14.99,12.41,47.59359,-54.27349
2021-12-26 04:44:00+00:00,336.0,13.58,317.0,17.49,12.41,47.59359,-54.27349
2021-12-26 04:54:00+00:00,335.0,10.6,323.0,12.45,12.41,47.59359,-54.27349
2021-12-26 05:04:00+00:00,324.0,11.31,318.0,14.3,12.41,47.59359,-54.27349
2021-12-26 05:14:00+00:00,333.0,10.11,324.0,12.97,12.41,47.59359,-54.27349
2021-12-26 05:24:00+00:00,333.0,9.99,338.0,12.17,12.41,47.59359,-54.27349
2021-12-26 05:34:00+00:00,334.0,10.74,324.0,12.81,12.41,47.59359,-54.27349
2021-12-26 05:44:00+00:00,330.0,11.61,321.0,15.18,12.41,47.59359,-54.27349
2021-12-26 05:54:00+00:00,338.0,11.46,340.0,13.35,12.41,47.59359,-54.27349
2021-12-26 06:04:00+00:00,328.0,12.29,315.0,16.32,12.41,47.59359,-54.27349
2021-12-26 06:14:01+00:00,319.0,14.01,313.0,17.16,12.41,47.59359,-54.27349
2021-12-26 06:24:01+00:00,324.0,11.42,322.0,13.23,12.41,47.59359,-54.27349
2021-12-26 06:34:01+00:00,316.0,13.23,307.0,17.75,12.41,47.59359,-54.27349
2021-12-26 06:44:01+00:00,307.0,14.69,303.0,17.5,12.41,47.59359,-54.27349
2021-12-26 06:54:01+00:00,321.0,10.95,302.0,15.38,12.41,47.59359,-54.27349
2021-12-26 07:04:01+00:00,320.0,11.49,306.0,15.69,12.41,47.59359,-54.27349
2021-12-26 07:14:00+00:00,328.0,11.35,328.0,14.03,12.33,47.59359,-54.27349
2021-12-26 07:24:00+00:00,325.0,11.71,323.0,13.05,12.33,47.59359,-54.27349
2021-12-26 07:34:00+00:00,317.0,11.16,305.0,15.62,12.33,47.59359,-54.27349
2021-12-26 07:44:00+00:00,315.0,11.45,305.0,15.84,12.33,47.59359,-54.27349
2021-12-26 07:54:00+00:00,322.0,9.56,301.0,13.62,12.33,47.59359,-54.27349
2021-12-26 08:04:00+00:00,322.0,9.71,303.0,13.9,12.33,47.59359,-54.27349
2021-12-26 08:14:01+00:00,337.0,9.64,340.0,11.86,12.33,47.59359,-54.27349
2021-12-26 08:24:01+00:00,341.0,9.23,345.0,10.73,12.33,47.59359,-54.27349
2021-12-26 08:34:01+00:00,333.0,8.64,322.0,10.77,12.33,47.59359,-54.27349
2021-12-26 08:44:01+00:00,325.0,7.3,314.0,8.75,12.33,47.59359,-54.27349
2021-12-26 08:54:01+00:00,321.0,6.18,310.0,7.82,12.33,47.59359,-54.27349
2021-12-26 09:04:01+00:00,321.0,6.79,326.0,8.48,12.33,47.59359,-54.27349
2021-12-26 09:14:00+00:00,305.0,6.14,310.0,7.52,12.33,47.59359,-54.27349
2021-12-26 09:24:00+00:00,310.0,6.36,312.0,7.74,12.33,47.59359,-54.27349
2021-12-26 09:34:00+00:00,307.0,5.16,304.0,7.06,12.33,47.59359,-54.27349
2021-12-26 09:44:00+00:00,296.0,4.16,299.0,5.1,12.33,47.59359,-54.27349
2021-12-26 09:54:00+00:00,305.0,4.13,308.0,4.88,12.33,47.59359,-54.27349
2021-12-26 10:04:00+00:00,311.0,3.9,309.0,4.64,12.33,47.59359,-54.27349
2021-12-26 10:14:01+00:00,279.0,4.72,290.0,5.5,12.33,47.59359,-54.27349
2021-12-26 10:24:01+00:00,269.0,3.34,271.0,4.07,12.33,47.59359,-54.27349
2021-12-26 10:34:01+00:00,274.0,4.06,266.0,4.98,12.33,47.59359,-54.27349
2021-12-26 10:44:01+00:00,275.0,4.14,279.0,4.98,12.33,47.59359,-54.27349
2021-12-26 10:54:01+00:00,264.0,3.09,247.0,4.03,12.33,47.59359,-54.27349
2021-12-26 11:04:01+00:00,268.0,2.42,283.0,3.73,12.33,47.59359,-54.27349
2021-12-26 11:14:01+00:00,226.0,1.97,229.0,2.46,12.33,47.59359,-54.27349
2021-12-26 11:24:01+00:00,294.0,2.0,282.0,3.0,12.33,47.59359,-54.27349
2021-12-26 11:34:01+00:00,284.0,3.14,287.0,3.73,12.33,47.59359,-54.27349
2021-12-26 11:44:01+00:00,297.0,2.79,291.0,3.28,12.33,47.59359,-54.27349
2021-12-26 11:54:01+00:00,271.0,9.35,270.0,10.34,12.33,47.59359,-54.27349
2021-12-26 12:04:01+00:00,271.0,9.5,274.0,10.85,12.33,47.59359,-54.27349
2021-12-26 12:14:00+00:00,234.0,4.4,232.0,5.01,13.37,47.59359,-54.27349
2021-12-26 12:24:00+00:00,237.0,4.27,234.0,4.99,13.37,47.59359,-54.27349
2021-12-26 12:34:00+00:00,171.0,1.39,246.0,3.7,13.37,47.59359,-54.27349
2021-12-26 12:44:00+00:00,237.0,4.35,233.0,5.06,13.37,47.59359,-54.27349
2021-12-26 12:54:00+00:00,237.0,3.84,246.0,4.67,13.37,47.59359,-54.27349
2021-12-26 13:04:00+00:00,185.0,2.02,235.0,4.02,13.37,47.59359,-54.27349
2021-12-26 13:14:01+00:00,244.0,3.86,238.0,4.43,13.29,47.59359,-54.27349
2021-12-26 13:24:01+00:00,202.0,1.27,253.0,3.61,13.29,47.59359,-54.27349
2021-12-26 13:34:01+00:00,136.0,2.24,132.0,2.65,13.29,47.59359,-54.27349
2021-12-26 13:44:01+00:00,166.0,1.23,243.0,3.17,13.29,47.59359,-54.27349
2021-12-26 13:54:01+00:00,104.0,1.78,106.0,2.25,13.29,47.59359,-54.27349
2021-12-26 14:04:01+00:00,86.0,1.16,83.0,1.67,13.29,47.59359,-54.27349
2021-12-26 14:14:01+00:00,175.0,1.41,249.0,3.94,13.68,47.59359,-54.27349
2021-12-26 14:24:01+00:00,121.0,2.03,132.0,2.75,13.68,47.59359,-54.27349
2021-12-26 14:34:01+00:00,108.0,1.94,96.0,2.38,13.68,47.59359,-54.27349
2021-12-26 14:44:01+00:00,263.0,0.96,253.0,3.54,13.68,47.59359,-54.27349
2021-12-26 14:54:01+00:00,91.0,1.98,80.0,2.75,13.68,47.59359,-54.27349
2021-12-26 15:04:01+00:00,58.0,1.2,266.0,3.49,13.68,47.59359,-54.27349
2021-12-26 15:14:01+00:00,61.0,1.96,60.0,2.42,13.76,47.59359,-54.27349
2021-12-26 15:24:01+00:00,0.0,1.57,300.0,3.76,13.76,47.59359,-54.27349
2021-12-26 15:34:01+00:00,312.0,2.04,301.0,4.18,13.76,47.59359,-54.27349
2021-12-26 15:44:01+00:00,296.0,2.23,278.0,3.93,13.76,47.59359,-54.27349
2021-12-26 15:54:01+00:00,277.0,6.59,273.0,9.37,13.76,47.59359,-54.27349
2021-12-26 16:04:01+00:00,290.0,3.68,292.0,4.35,13.76,47.59359,-54.27349
2021-12-26 16:14:01+00:00,292.0,2.13,291.0,3.9,13.68,47.59359,-54.27349
2021-12-26 16:24:01+00:00,271.0,3.12,282.0,3.97,13.68,47.59359,-54.27349
2021-12-26 16:34:01+00:00,316.0,0.64,281.0,3.38,13.68,47.59359,-54.27349
2021-12-26 16:44:01+00:00,288.0,2.48,284.0,3.86,13.68,47.59359,-54.27349
2021-12-26 16:54:01+00:00,299.0,3.93,297.0,4.54,13.68,47.59359,-54.27349
2021-12-26 17:04:01+00:00,291.0,4.17,286.0,5.51,13.68,47.59359,-54.27349
2021-12-26 17:14:01+00:00,331.0,1.9,306.0,3.89,13.53,47.59359,-54.27349
2021-12-26 17:24:01+00:00,289.0,3.03,287.0,4.21,13.53,47.59359,-54.27349
2021-12-26 17:34:01+00:00,280.0,3.94,296.0,4.57,13.53,47.59359,-54.27349
2021-12-26 17:44:01+00:00,274.0,3.31,265.0,4.02,13.53,47.59359,-54.27349
2021-12-26 17:54:01+00:00,262.0,3.26,263.0,3.64,13.53,47.59359,-54.27349
2021-12-26 18:04:01+00:00,259.0,3.81,254.0,4.19,13.53,47.59359,-54.27349
2021-12-26 18:14:00+00:00,261.0,3.8,264.0,4.22,13.76,47.59359,-54.27349
2021-12-26 18:24:00+00:00,260.0,3.52,255.0,3.97,13.76,47.59359,-54.27349
2021-12-26 18:34:00+00:00,255.0,4.2,258.0,5.09,13.76,47.59359,-54.27349
2021-12-26 18:44:00+00:00,270.0,3.89,266.0,4.35,13.76,47.59359,-54.27349
2021-12-26 18:54:00+00:00,262.0,3.8,262.0,4.6,13.76,47.59359,-54.27349
2021-12-26 19:04:00+00:00,253.0,5.64,258.0,8.59,13.76,47.59359,-54.27349
2021-12-26 19:14:00+00:00,258.0,7.48,261.0,9.72,13.21,47.59359,-54.27349
2021-12-26 19:24:00+00:00,258.0,5.49,257.0,8.37,13.21,47.59359,-54.27349
2021-12-26 19:34:00+00:00,254.0,5.76,255.0,7.71,13.21,47.59359,-54.27349
2021-12-26 19:44:00+00:00,270.0,5.89,276.0,6.44,13.21,47.59359,-54.27349
2021-12-26 19:54:00+00:00,268.0,6.01,271.0,7.12,13.21,47.59359,-54.27349
2021-12-26 20:04:00+00:00,274.0,5.08,273.0,6.04,13.21,47.59359,-54.27349
2021-12-26 20:14:01+00:00,292.0,5.45,288.0,6.94,12.65,47.59359,-54.27349
2021-12-26 20:24:01+00:00,295.0,5.73,295.0,7.59,12.65,47.59359,-54.27349
2021-12-26 20:34:01+00:00,290.0,6.73,285.0,8.64,12.65,47.59359,-54.27349
2021-12-26 20:44:01+00:00,292.0,6.13,286.0,9.03,12.65,47.59359,-54.27349
2021-12-26 20:54:01+00:00,290.0,5.15,279.0,8.05,12.65,47.59359,-54.27349
2021-12-26 21:04:01+00:00,296.0,5.13,284.0,9.38,12.65,47.59359,-54.27349
2021-12-26 21:14:01+00:00,300.0,4.56,295.0,5.98,12.57,47.59359,-54.27349
2021-12-26 21:24:01+00:00,308.0,4.53,314.0,5.34,12.57,47.59359,-54.27349
2021-12-26 21:34:01+00:00,302.0,6.55,293.0,9.7,12.57,47.59359,-54.27349
2021-12-26 21:44:01+00:00,310.0,6.9,299.0,10.39,12.57,47.59359,-54.27349
2021-12-26 21:54:01+00:00,316.0,8.59,312.0,11.68,12.57,47.59359,-54.27349
2021-12-26 22:04:01+00:00,305.0,9.84,299.0,11.63,12.57,47.59359,-54.27349
2021-12-26 22:14:01+00:00,301.0,8.83,299.0,10.86,12.57,47.59359,-54.27349
2021-12-26 22:24:01+00:00,318.0,6.83,300.0,10.2,12.57,47.59359,-54.27349
2021-12-26 22:34:01+00:00,328.0,6.49,306.0,9.57,12.57,47.59359,-54.27349
2021-12-26 22:44:01+00:00,330.0,6.53,310.0,9.34,12.57,47.59359,-54.27349
2021-12-26 22:54:01+00:00,337.0,5.81,325.0,7.22,12.57,47.59359,-54.27349
2021-12-26 23:04:01+00:00,337.0,6.04,325.0,7.07,12.57,47.59359,-54.27349
2021-12-26 23:14:01+00:00,343.0,6.89,340.0,8.55,12.49,47.59359,-54.27349
2021-12-26 23:24:01+00:00,348.0,8.19,339.0,9.46,12.49,47.59359,-54.27349
2021-12-26 23:34:01+00:00,4.0,6.49,6.0,7.36,12.49,47.59359,-54.27349
2021-12-26 23:44:01+00:00,5.0,7.96,11.0,9.09,12.49,47.59359,-54.27349
2021-12-26 23:54:01+00:00,0.0,8.09,359.0,9.34,12.49,47.59359,-54.27349
